Погода в Линвуде

США     47°49′16″N   122°18′49″W
темп.,
°C
ветер,
м/с
пор.,
м/с
влажн.,
%
обл.,
%
осадки,
мм/ч
давл.,
гПа
погр.,
м
15 мая, сб
сб1523:00+9всв11895 0.0 101825
02:00+8св11940 0.0 101919
05:00+7св11950 0.0 101910
08:00+13с12715 0.0 1019285
11:00+18сз3451100 0.0 1018752
14:00+22сз344110 0.0 1017907
17:00+22сз34405 0.0 1015842
20:00+15с25655 0.0 1014103
16 мая, вс
вс1623:00+10св11850 0.0 101512
02:00+9в11900 0.0 101510
05:00+8юв119482 0.0 101510
08:00+14ююз23675 0.0 1015375
11:00+20ююз22445 0.0 1014980
14:00+24ююз22354 0.0 10131639
17:00+21сз434621 0.0 1012908
20:00+14св277419 0.0 1013295
17 мая, пн
пн1723:00+12в3681100 0.0 1014366
02:00+12вюв2482100 0.0 1015333
05:00+12ююв2583100 0.1 1015599
08:00+11ю3688100 0.3 1016621
11:00+13ю3578100 0.4 1015923
14:00+17ю3553100 0.0 10141572
17:00+18юз574383 0.0 10131680
20:00+14зюз3764100 0.0 1014731
18 мая, вт
вт1823:00+11ююз5117398 0.0 1015736
02:00+10ю51189100 0.3 1016686
05:00+9ю3891100 0.4 1017661
08:00+9ю3573100 0.3 10191036
11:00+13юз4648100 0.4 10181775
14:00+14з3551100 0.5 10171639
17:00+12ссз3376100 1.9 1017551
20:00+9ссв3780100 0.8 1018401
19 мая, ср
ср1923:00+8ссв1281100 0.9 101891
02:00+7с128894 0.1 101882
05:00+6ююв129476 0.1 101957
08:00+7ю128192 0.1 1019417
11:00+12ююв015331 0.2 1018938
14:00+14ссз333865 0.5 10161898
17:00+14сз443311 0.5 10141532
20:00+10с38555 0.0 1015375